Weather History for Galesburg, IL

Change the Weather History Date:

Sunday, July 14, 2013

  Actual Average Record
Temperature  
Mean Temperature 76 °F -  
Max Temperature 87 °F 85 °F 99 °F (1977)
Min Temperature 66 °F 66 °F 48 °F (1967)
Cooling Degree Days 11    
Growing Degree Days 26 (Base 50)    
Moisture  
Dew Point 63 °F    
Average Humidity 64    
Maximum Humidity 86    
Minimum Humidity 44    
Precipitation  
Precipitation 0.00 in - - ()
Sea Level Pressure  
Sea Level Pressure 30.15 in    
Wind  
Wind Speed 5 mph (ESE)    
Max Wind Speed 12 mph    
Max Gust Speed 17 mph    
Visibility 10 miles    
Events      
Averages and records for this station are not official NWS values.
T = Trace of Precipitation, MM = Missing Value Source: NWS Daily Summary

Daily Weather History Graph

Daily Weather History Graph

Search for Another Location

Airport:

Trip Planner

Search our weather history database for the weather conditions in past years. The results will help you decide how hot, cold, wet, or windy it might be!

Date:

Astronomy

Jul. 14, 2013 Rise Set
Actual Time 5:42 AM CDT 8:32 PM CDT
Civil Twilight 5:09 AM CDT 9:05 PM CDT
Nautical Twilight 4:28 AM CDT 9:46 PM CDT
Astronomical Twilight 3:41 AM CDT 10:33 PM CDT
Moon 12:02 PM CDT (7/14) 11:41 PM CDT (7/14)
Length of Visible Light 15h 55m
Length of Day
14h 50m
Waxing Crescent, 35% of the Moon is Illuminated
Jul 14
Waxing Crescent
Jul 15
First Quarter
Jul 22
Full
Jul 29
Last Quarter
Aug 6
New

Hourly Weather History & Observations

Time (CDT) Temp. Heat Index Dew Point Humidity Pressure Visibility Wind Dir Wind Speed Gust Speed Precip Events Conditions
12:15 AM 69.8 °F - 60.3 °F 72% 30.12 in 10.0 mi East 4.6 mph - N/A   Clear
12:35 AM 69.8 °F - 60.4 °F 72% 30.11 in 10.0 mi East 4.6 mph - N/A   Clear
12:55 AM 69.3 °F - 60.8 °F 74% 30.11 in 10.0 mi East 3.5 mph - N/A   Clear
1:15 AM 68.5 °F - 61.0 °F 77% 30.11 in 10.0 mi East 3.5 mph - N/A   Clear
1:35 AM 68.0 °F - 61.0 °F 78% 30.11 in 10.0 mi East 3.5 mph - N/A   Clear
1:55 AM 67.6 °F - 61.0 °F 79% 30.12 in 10.0 mi East 3.5 mph - N/A   Clear
2:15 AM 68.0 °F - 61.2 °F 79% 30.12 in 10.0 mi East 4.6 mph - N/A   Clear
2:35 AM 68.0 °F - 61.2 °F 79% 30.12 in 10.0 mi East 3.5 mph - N/A   Clear
2:55 AM 67.3 °F - 61.2 °F 81% 30.12 in 10.0 mi East 3.5 mph - N/A   Clear
3:15 AM 67.6 °F - 61.7 °F 81% 30.13 in 10.0 mi East 3.5 mph - N/A   Clear
3:35 AM 68.0 °F - 61.7 °F 80% 30.12 in 10.0 mi East 4.6 mph - N/A   Clear
3:55 AM 67.5 °F - 61.7 °F 82% 30.12 in 10.0 mi East 5.8 mph - N/A   Clear
4:15 AM 68.4 °F - 61.7 °F 79% 30.12 in 10.0 mi East 8.1 mph - N/A   Clear
4:35 AM 69.1 °F - 61.9 °F 78% 30.13 in 10.0 mi East 9.2 mph - N/A   Clear
4:55 AM 68.2 °F - 61.9 °F 80% 30.13 in 10.0 mi East 8.1 mph - N/A   Clear
5:15 AM 68.0 °F - 62.1 °F 81% 30.13 in 10.0 mi East 6.9 mph - N/A   Clear
5:35 AM 67.5 °F - 62.2 °F 83% 30.14 in 10.0 mi East 6.9 mph - N/A   Clear
5:55 AM 67.1 °F - 62.2 °F 84% 30.13 in 10.0 mi East 9.2 mph - N/A   Clear
6:15 AM 66.6 °F - 62.2 °F 86% 30.13 in 10.0 mi East 6.9 mph - N/A   Clear
6:35 AM 67.1 °F - 62.6 °F 85% 30.13 in 10.0 mi East 6.9 mph - N/A   Clear
6:55 AM 68.2 °F - 62.8 °F 83% 30.12 in 10.0 mi ESE 6.9 mph - N/A   Clear
7:15 AM 69.1 °F - 63.5 °F 82% 30.12 in 10.0 mi ESE 5.8 mph - N/A   Clear
7:35 AM 70.3 °F - 64.0 °F 80% 30.13 in 10.0 mi ESE 6.9 mph - N/A   Clear
7:55 AM 72.1 °F - 64.4 °F 77% 30.13 in 10.0 mi SE 5.8 mph - N/A   Clear
8:15 AM 73.8 °F - 64.6 °F 73% 30.14 in 10.0 mi SE 6.9 mph - N/A   Clear
8:35 AM 74.7 °F - 64.2 °F 70% 30.15 in 10.0 mi SSE 5.8 mph - N/A   Scattered Clouds
8:55 AM 76.1 °F - 64.9 °F 68% 30.15 in 10.0 mi SE 8.1 mph - N/A   Clear
9:15 AM 76.3 °F - 64.6 °F 67% 30.16 in 10.0 mi SE 6.9 mph - N/A   Clear
9:35 AM 77.7 °F - 65.3 °F 65% 30.16 in 10.0 mi SE 5.8 mph - N/A   Clear
9:55 AM 78.3 °F - 64.4 °F 62% 30.16 in 10.0 mi SSE 6.9 mph - N/A   Clear
10:15 AM 79.2 °F - 64.4 °F 60% 30.17 in 10.0 mi SE 6.9 mph - N/A   Clear
10:35 AM 79.7 °F - 63.3 °F 57% 30.17 in 10.0 mi SSE 9.2 mph - N/A   Clear
10:55 AM 80.6 °F 81.9 °F 63.1 °F 55% 30.18 in 10.0 mi SE 8.1 mph - N/A   Clear
11:15 AM 81.1 °F 82.5 °F 63.7 °F 55% 30.17 in 10.0 mi SSE 8.1 mph - N/A   Clear
11:35 AM 81.7 °F 82.9 °F 62.8 °F 53% 30.17 in 10.0 mi SSE 8.1 mph - N/A   Clear
11:55 AM 82.2 °F 83.0 °F 61.7 °F 50% 30.17 in 10.0 mi SSE 6.9 mph - N/A   Clear
12:15 PM 82.9 °F 83.5 °F 61.2 °F 48% 30.18 in 10.0 mi SSE 6.9 mph - N/A   Clear
12:35 PM 84.2 °F 84.8 °F 62.2 °F 47% 30.18 in 10.0 mi SSE 8.1 mph 17.3 mph N/A   Clear
12:55 PM 84.2 °F 84.4 °F 60.6 °F 45% 30.18 in 10.0 mi SSE 10.4 mph - N/A   Clear
1:15 PM 84.9 °F 85.0 °F 61.0 °F 44% 30.18 in 10.0 mi SE 4.6 mph - N/A   Clear
1:35 PM 85.1 °F 85.2 °F 61.0 °F 44% 30.18 in 10.0 mi South 11.5 mph - N/A   Clear
1:55 PM 85.3 °F 85.7 °F 61.9 °F 45% 30.17 in 10.0 mi SSE 6.9 mph - N/A   Clear
2:15 PM 86.2 °F 87.1 °F 63.0 °F 46% 30.17 in 10.0 mi ESE 6.9 mph - N/A   Scattered Clouds
2:35 PM 86.0 °F 86.8 °F 62.8 °F 46% 30.17 in 10.0 mi East 3.5 mph - N/A   Scattered Clouds
2:55 PM 86.0 °F 86.3 °F 62.1 °F 44% 30.17 in 10.0 mi Calm Calm - N/A   Mostly Cloudy
3:15 PM 86.5 °F 87.3 °F 63.0 °F 45% 30.17 in 10.0 mi ESE 5.8 mph - N/A   Scattered Clouds
3:35 PM 86.2 °F 87.1 °F 63.3 °F 46% 30.16 in 10.0 mi ESE 6.9 mph - N/A   Mostly Cloudy
3:55 PM 86.2 °F 87.3 °F 64.0 °F 47% 30.16 in 10.0 mi SE 6.9 mph - N/A   Scattered Clouds
4:15 PM 86.2 °F 87.1 °F 63.1 °F 46% 30.16 in 10.0 mi SSE 4.6 mph - N/A   Clear
4:35 PM 86.4 °F 87.3 °F 63.3 °F 46% 30.16 in 10.0 mi SE 6.9 mph - N/A   Scattered Clouds
4:55 PM 86.5 °F 87.8 °F 64.2 °F 47% 30.16 in 10.0 mi ESE 5.8 mph - N/A   Scattered Clouds
5:15 PM 86.4 °F 87.3 °F 63.5 °F 46% 30.15 in 10.0 mi ESE 4.6 mph - N/A   Clear
5:35 PM 86.0 °F 86.8 °F 63.0 °F 46% 30.15 in 10.0 mi ESE 5.8 mph - N/A   Clear
5:55 PM 85.8 °F 87.1 °F 63.9 °F 48% 30.15 in 10.0 mi ESE 3.5 mph - N/A   Clear
6:15 PM 85.8 °F 87.1 °F 64.0 °F 48% 30.15 in 10.0 mi ESE 4.6 mph - N/A   Clear
6:35 PM 85.3 °F 86.8 °F 64.6 °F 50% 30.15 in 10.0 mi ESE 3.5 mph - N/A   Clear
6:55 PM 84.4 °F 85.9 °F 64.2 °F 51% 30.15 in 10.0 mi Calm Calm - N/A   Clear
7:15 PM 84.2 °F 86.3 °F 65.8 °F 54% 30.15 in 10.0 mi Calm Calm - N/A   Clear
7:35 PM 83.5 °F 85.7 °F 66.2 °F 56% 30.16 in 10.0 mi Calm Calm - N/A   Clear
7:55 PM 82.4 °F 84.4 °F 66.0 °F 57% 30.16 in 10.0 mi Calm Calm - N/A   Clear
8:15 PM 81.0 °F 82.9 °F 65.5 °F 59% 30.16 in 10.0 mi Calm Calm - N/A   Clear
8:35 PM 79.7 °F - 65.3 °F 61% 30.16 in 10.0 mi Calm Calm - N/A   Clear
8:55 PM 78.8 °F - 65.7 °F 64% 30.16 in 10.0 mi Calm Calm - N/A   Clear
9:15 PM 77.5 °F - 65.3 °F 66% 30.16 in 10.0 mi ESE 3.5 mph - N/A   Clear
9:35 PM 77.4 °F - 65.3 °F 66% 30.17 in 10.0 mi Calm Calm - N/A   Clear
9:55 PM 76.8 °F - 65.3 °F 67% 30.18 in 10.0 mi East 3.5 mph - N/A   Clear
10:15 PM 76.1 °F - 65.7 °F 70% 30.18 in 10.0 mi East 3.5 mph - N/A   Clear
10:35 PM 76.1 °F - 65.8 °F 70% 30.18 in 10.0 mi Calm Calm - N/A   Clear
10:55 PM 75.6 °F - 65.8 °F 72% 30.19 in 10.0 mi ESE 3.5 mph - N/A   Clear
11:15 PM 75.2 °F - 66.2 °F 73% 30.18 in 10.0 mi ESE 4.6 mph - N/A   Clear
11:35 PM 75.0 °F - 66.4 °F 74% 30.18 in 10.0 mi East 4.6 mph - N/A   Clear
11:55 PM 74.3 °F - 66.6 °F 77% 30.18 in 10.0 mi Calm Calm - N/A   Clear